Flag for Canada Weather past 2 weeks in Langley, British Columbia, Canada

Now
67 °F

Mild.


Feels Like: 67 °F
Forecast: 45 / 67 °F
Wind: 7 mph from West

Location: P. Meadows Coastal Station

Current Time: Sep 4, 2015 at 6:58:28 PM

Latest Report: Sep 4, 2015 at 6:00 PM


Visibility: N/A

Pressure: 29.97 "Hg

Humidity: 51%

Dew point: 48 °F

Location of LangleyLocation

Historic Weather in Langley — Graph

°F

Langley temperature yesterday

Maximum temperature yesterday: 59 °F (at 1:00 PM)
Minimum temperature yesterday: 51 °F (at 5:00 AM)
Average temperature yesterday: 54 °F

Past Weeks' High & Low Weather Summary

 TemperatureHumidityPressure
High83 °F (Aug 27, 6:00 PM)99% (Aug 22, 2:00 AM)30.13 "Hg (Aug 22, 2:00 AM)
Low49 °F (Sep 4, 7:00 AM)24% (Aug 27, 4:00 PM)29.46 "Hg (Aug 29, 6:00 AM)
Average62 °F74%29.92 "Hg
* Reported Aug 20 5:00 PM — Sep 4 5:00 PM, Langley, Weather by CustomWeather, © 2015

Note: Actual official high and low records may vary slightly from our data, if they occured in-between our weather recording intervals... More about our weather records

Advertising

Langley weather history for previous 24 hours

 ConditionsComfort  
Time TempWeatherWind HumidityBarometerVisibility
5:00 PM
Fri, Sep 4
69 °FMild.8 mph50%29.96 "HgN/A
4:00 PM68 °FMild.3 mph45%29.96 "HgN/A
3:00 PM68 °FMild.3 mph51%29.98 "HgN/A
2:00 PM65 °FMild.3 mph53%29.99 "HgN/A
1:00 PM62 °FCool.3 mph61%30.01 "HgN/A
12:00 PM61 °FCool.2 mph62%30.03 "HgN/A
11:00 AM59 °FCool.2 mph68%30.03 "HgN/A
10:00 AM55 °FCool.2 mph79%30.03 "HgN/A
9:00 AM53 °FCool.1 mph88%30.03 "HgN/A
8:00 AM51 °FCool.1 mph94%30.03 "HgN/A
7:00 AM49 °FCool.No wind95%30.02 "HgN/A
6:00 AM49 °FCool.No wind87%30.02 "HgN/A
5:00 AM50 °FCool.1 mph93%30.02 "HgN/A
4:00 AM49 °FCool.2 mph93%30.02 "HgN/A
3:00 AM50 °FCool.2 mph95%30.02 "HgN/A
2:00 AM51 °FCool.2 mph93%30.03 "HgN/A
1:00 AM52 °FCool.1 mph90%30.03 "HgN/A
12:00 AM53 °FCool.2 mph89%30.03 "HgN/A
11:00 PM
Thu, Sep 3
52 °FCool.1 mph91%30.03 "HgN/A
10:00 PM52 °FCool.1 mph89%30.03 "HgN/A
9:00 PM53 °FCool.3 mph88%30.02 "HgN/A
8:00 PM54 °FCool.6 mph86%30.01 "HgN/A
7:00 PM53 °FCool.7 mph89%30.01 "HgN/A
6:00 PM55 °FCool.7 mph76%30.01 "HgN/A
Weather by CustomWeather, © 2015

See weather overviewHow to use our weather pages